GAOFEN 9

Last updated on Mon Sep 14 2020 05:43:40 GMT+0000 (Coordinated Universal Time)

1 40894U 15047A 20257.81502114 .00000026 00000-0 11037-4 0 9994 2 40894 97.8841 335.0203 0034569 121.8274 238.6303 14.76294384269518

Satellite not in orbit

GAOFEN 9